Location: Canyam�s
(41.5996°N, 2.4450°E)
Time: 12:07:46
(UTC+00:00)

SL-4 R/B - Pass Details

Date: 06 June 2020
Orbit: 428 x 666 km, 51.6° (Epoch: 11 July)

Event Time Altitude Azimuth Distance (km) Brightness Sun altitude
Rises 21:46:23 0° 270° (W) 2,934 6.1 -19.6°
Reaches altitude 10° 21:48:55 10° 281° (W) 2,051 5.5 -19.9°
Maximum altitude 21:53:08 31° 344° (NNW) 1,161 4.3 -20.3°
Drops below altitude 10° 21:57:28 10° 47° (NE) 2,092 5.1 -20.6°
Sets 22:00:03 0° 57° (ENE) 3,001 5.9 -20.9°
